Precipitable_Water
1.17 1.24 1.23 1.03 0.69 0.58 0.45 0.46 0.56 0.52 0.54 0.68 0.68 0.64 0.63 0.65 0.57 0.45 0.95 0.99 0.93 0.88 0.91 0.89 0.96 1.15 1.11 1.09 1.07 1.04 1.03 1.02 1.01 0.99 0.95 0.95 0.96 0.98 0.97 0.91 0.90 0.91 0.92 0.88 0.89 0.91 0.92 0.98 1.03
1.21 1.19 1.08 0.83 0.57 0.46 0.45 0.57 0.49 0.57 0.69 0.74 0.73 0.72 0.67 0.61 0.76 0.75 0.83 0.97 1.03 1.02 1.03 1.03 1.10 1.13 1.13 1.12 1.07 1.04 1.03 0.94 0.92 0.89 0.88 0.86 0.85 0.87 0.92 0.94 0.96 0.96 1.00 1.00 0.99 0.98 0.98 1.00 1.00
1.22 1.16 0.86 0.68 0.53 0.49 0.49 0.59 0.60 0.67 0.72 0.69 0.70 0.80 0.73 0.61 0.75 0.77 0.93 1.00 1.07 1.14 1.20 1.18 1.21 1.19 1.15 1.12 1.03 0.99 0.91 0.84 0.85 0.81 0.76 0.72 0.73 0.77 0.79 0.81 0.90 1.01 1.02 1.00 0.95 0.92 0.94 0.96 0.97
1.09 1.00 0.86 0.60 0.47 0.55 0.60 0.65 0.67 0.67 0.71 0.74 0.76 0.68 0.80 0.83 0.80 0.87 0.96 1.01 1.05 1.07 1.12 1.13 1.14 1.14 1.10 0.99 0.89 0.83 0.79 0.76 0.74 0.71 0.65 0.62 0.61 0.63 0.65 0.66 0.71 0.83 0.84 0.85 0.87 0.89 0.91 0.92 0.91
1.04 0.87 0.64 0.57 0.54 0.60 0.67 0.72 0.70 0.63 0.64 0.67 0.74 0.64 0.68 0.81 0.97 0.98 0.95 0.99 0.94 0.97 1.04 1.05 1.01 1.04 0.99 0.85 0.77 0.73 0.70 0.63 0.55 0.53 0.55 0.57 0.58 0.57 0.56 0.55 0.56 0.65 0.70 0.69 0.69 0.70 0.71 0.73 0.75
0.80 0.77 0.57 0.50 0.54 0.62 0.67 0.72 0.73 0.68 0.71 0.71 0.65 0.64 0.71 0.90 0.91 0.98 0.94 0.91 0.94 0.95 0.98 0.93 0.88 0.94 0.83 0.65 0.61 0.59 0.56 0.51 0.48 0.55 0.57 0.59 0.62 0.62 0.61 0.58 0.58 0.58 0.60 0.62 0.60 0.59 0.58 0.58 0.59
0.70 0.63 0.57 0.58 0.58 0.54 0.61 0.75 0.72 0.73 0.69 0.69 0.77 0.58 0.74 0.82 1.00 1.03 0.96 0.90 0.91 0.90 0.79 0.79 0.81 0.78 0.71 0.55 0.51 0.49 0.48 0.45 0.51 0.58 0.60 0.61 0.63 0.68 0.67 0.64 0.62 0.59 0.57 0.56 0.54 0.53 0.52 0.51 0.50
0.71 0.67 0.62 0.64 0.62 0.61 0.69 0.71 0.79 0.75 0.70 0.86 0.86 0.51 0.54 0.79 0.98 1.01 0.98 0.88 0.82 0.66 0.55 0.62 0.68 0.70 0.64 0.58 0.54 0.51 0.49 0.49 0.56 0.58 0.59 0.59 0.63 0.64 0.63 0.58 0.54 0.50 0.49 0.50 0.49 0.48 0.48 0.48 0.48
0.74 0.58 0.58 0.60 0.61 0.65 0.77 0.70 0.82 0.86 0.77 0.83 0.83 0.69 0.72 0.87 0.90 0.90 0.92 0.90 0.70 0.48 0.48 0.52 0.54 0.58 0.63 0.61 0.56 0.53 0.55 0.55 0.57 0.58 0.58 0.61 0.63 0.60 0.54 0.51 0.48 0.45 0.44 0.46 0.47 0.47 0.46 0.51 0.50
0.61 0.57 0.60 0.71 0.70 0.71 0.79 0.76 0.76 0.74 0.74 0.75 0.78 0.80 0.88 0.81 0.79 0.80 0.84 0.83 0.70 0.40 0.39 0.44 0.49 0.51 0.50 0.50 0.55 0.56 0.58 0.62 0.62 0.62 0.60 0.57 0.56 0.52 0.47 0.44 0.43 0.40 0.42 0.43 0.45 0.46 0.49 0.53 0.57
0.67 0.59 0.69 0.72 0.76 0.74 0.71 0.72 0.82 0.75 0.68 0.78 0.77 0.87 0.90 0.77 0.76 0.80 0.85 0.86 0.70 0.46 0.38 0.45 0.52 0.52 0.49 0.51 0.54 0.56 0.59 0.61 0.61 0.58 0.52 0.51 0.48 0.48 0.46 0.46 0.43 0.43 0.46 0.48 0.51 0.54 0.58 0.62 0.64
0.61 0.70 0.73 0.76 0.78 0.69 0.68 0.78 0.73 0.78 0.82 0.88 0.91 0.99 0.97 0.86 0.72 0.79 0.85 0.85 0.70 0.54 0.44 0.47 0.51 0.51 0.52 0.51 0.54 0.56 0.57 0.59 0.57 0.56 0.48 0.40 0.40 0.43 0.43 0.41 0.43 0.46 0.50 0.52 0.56 0.61 0.65 0.67 0.68
0.64 0.70 0.74 0.78 0.76 0.71 0.75 0.68 0.73 0.74 0.85 0.92 0.97 1.00 0.96 0.88 0.78 0.83 0.93 0.89 0.77 0.60 0.49 0.48 0.51 0.52 0.52 0.53 0.54 0.57 0.57 0.58 0.57 0.53 0.46 0.41 0.42 0.44 0.46 0.48 0.49 0.51 0.53 0.56 0.61 0.64 0.64 0.62 0.62
0.73 0.72 0.72 0.75 0.74 0.71 0.70 0.65 0.71 0.77 0.87 0.90 0.94 0.96 0.96 0.90 0.82 0.86 0.92 0.89 0.82 0.69 0.55 0.50 0.52 0.55 0.55 0.54 0.56 0.58 0.59 0.59 0.57 0.53 0.45 0.48 0.49 0.50 0.51 0.52 0.53 0.56 0.61 0.64 0.66 0.65 0.61 0.61 0.61
0.78 0.68 0.73 0.70 0.74 0.73 0.78 0.60 0.59 0.77 0.80 0.83 0.91 0.97 1.01 1.00 0.97 0.91 0.97 0.96 0.89 0.79 0.61 0.49 0.53 0.56 0.57 0.57 0.57 0.59 0.59 0.58 0.55 0.52 0.48 0.49 0.52 0.54 0.54 0.53 0.55 0.62 0.67 0.68 0.67 0.64 0.64 0.62 0.60
0.69 0.67 0.56 0.68 0.63 0.71 0.72 0.59 0.70 0.78 0.76 0.76 0.86 0.94 1.01 1.02 1.00 0.99 1.02 1.02 0.97 0.84 0.64 0.49 0.50 0.54 0.56 0.58 0.58 0.60 0.61 0.60 0.56 0.53 0.51 0.50 0.51 0.53 0.53 0.54 0.60 0.65 0.66 0.64 0.62 0.63 0.62 0.62 0.61
0.65 0.50 0.54 0.48 0.59 0.64 0.65 0.60 0.76 0.84 0.80 0.76 0.83 0.90 0.99 1.02 1.03 1.00 1.03 1.03 0.99 0.87 0.70 0.50 0.47 0.53 0.55 0.58 0.58 0.62 0.63 0.60 0.58 0.54 0.53 0.51 0.50 0.52 0.53 0.55 0.61 0.66 0.65 0.64 0.66 0.67 0.67 0.64 0.62
0.49 0.52 0.50 0.44 0.56 0.61 0.61 0.61 0.72 0.79 0.82 0.77 0.80 0.87 0.92 0.94 0.95 0.99 0.99 1.00 0.93 0.84 0.72 0.59 0.49 0.52 0.55 0.58 0.59 0.60 0.62 0.62 0.60 0.57 0.55 0.53 0.52 0.53 0.53 0.58 0.63 0.65 0.64 0.67 0.69 0.67 0.68 0.62 0.61
0.52 0.48 0.44 0.47 0.54 0.54 0.59 0.62 0.65 0.77 0.81 0.77 0.76 0.78 0.81 0.86 0.95 0.96 0.94 0.96 0.91 0.82 0.70 0.60 0.54 0.50 0.52 0.52 0.49 0.51 0.52 0.57 0.57 0.57 0.57 0.57 0.55 0.54 0.57 0.60 0.64 0.66 0.68 0.69 0.66 0.65 0.62 0.60 0.61
0.50 0.44 0.40 0.45 0.49 0.56 0.56 0.55 0.61 0.69 0.73 0.74 0.74 0.78 0.83 0.94 0.98 1.01 0.97 0.94 0.88 0.78 0.72 0.61 0.55 0.51 0.50 0.49 0.50 0.51 0.54 0.56 0.56 0.56 0.56 0.58 0.56 0.60 0.66 0.68 0.72 0.73 0.68 0.68 0.67 0.65 0.63 0.60 0.57
0.44 0.40 0.39 0.41 0.47 0.53 0.52 0.46 0.54 0.69 0.71 0.73 0.76 0.81 0.87 0.90 0.95 0.99 0.94 0.90 0.87 0.78 0.76 0.67 0.63 0.61 0.60 0.60 0.61 0.62 0.64 0.62 0.55 0.59 0.62 0.61 0.69 0.73 0.73 0.74 0.74 0.70 0.69 0.66 0.66 0.65 0.61 0.55 0.53
0.40 0.51 0.46 0.42 0.39 0.35 0.57 0.33 0.57 0.51 0.61 0.62 0.68 0.73 0.79 0.85 0.94 0.97 0.93 0.88 0.81 0.81 0.84 0.78 0.70 0.68 0.68 0.68 0.65 0.60 0.54 0.52 0.60 0.63 0.67 0.73 0.75 0.73 0.74 0.74 0.74 0.71 0.68 0.67 0.65 0.67 0.62 0.54 0.42
0.37 0.48 0.44 0.41 0.38 0.39 0.39 0.37 0.39 0.47 0.45 0.48 0.57 0.65 0.73 0.83 0.90 0.94 0.93 0.87 0.84 0.87 0.85 0.83 0.76 0.74 0.73 0.71 0.69 0.66 0.65 0.66 0.69 0.70 0.76 0.77 0.76 0.75 0.76 0.76 0.72 0.70 0.68 0.70 0.68 0.63 0.54 0.43 0.34
0.33 0.38 0.39 0.40 0.37 0.28 0.34 0.35 0.31 0.38 0.43 0.45 0.50 0.52 0.56 0.67 0.79 0.92 0.93 0.92 0.89 0.91 0.90 0.87 0.82 0.79 0.78 0.77 0.77 0.76 0.73 0.69 0.69 0.75 0.74 0.75 0.75 0.76 0.75 0.71 0.71 0.70 0.68 0.65 0.64 0.56 0.45 0.34 0.25
0.31 0.30 0.28 0.27 0.28 0.26 0.35 0.29 0.29 0.33 0.35 0.37 0.43 0.52 0.57 0.62 0.73 0.86 0.90 0.89 0.87 0.85 0.89 0.93 0.88 0.85 0.85 0.82 0.82 0.80 0.77 0.74 0.76 0.78 0.77 0.75 0.74 0.72 0.70 0.70 0.69 0.67 0.64 0.62 0.55 0.45 0.34 0.25 0.20
0.34 0.32 0.28 0.22 0.22 0.26 0.32 0.23 0.29 0.35 0.39 0.43 0.48 0.55 0.62 0.69 0.75 0.87 0.93 0.88 0.81 0.85 0.93 0.94 0.91 0.89 0.90 0.85 0.82 0.87 0.86 0.84 0.85 0.85 0.84 0.79 0.75 0.71 0.70 0.68 0.66 0.64 0.62 0.54 0.44 0.33 0.23 0.22 0.21
0.34 0.28 0.37 0.30 0.31 0.25 0.25 0.27 0.33 0.37 0.36 0.42 0.49 0.57 0.62 0.70 0.81 0.91 0.89 0.82 0.82 0.90 0.94 0.97 0.95 0.93 0.91 0.85 0.84 0.89 0.92 0.87 0.88 0.89 0.86 0.81 0.75 0.69 0.69 0.68 0.66 0.60 0.54 0.45 0.34 0.25 0.20 0.21 0.22
0.33 0.40 0.28 0.29 0.19 0.16 0.19 0.26 0.26 0.31 0.33 0.40 0.47 0.54 0.62 0.69 0.75 0.80 0.84 0.85 0.86 0.91 0.94 0.95 0.95 0.89 0.89 0.84 0.87 0.90 0.89 0.90 0.89 0.87 0.81 0.76 0.71 0.67 0.66 0.66 0.62 0.54 0.47 0.35 0.26 0.20 0.21 0.21 0.22
0.28 0.28 0.30 0.32 0.30 0.18 0.16 0.22 0.36 0.35 0.37 0.39 0.45 0.52 0.59 0.63 0.67 0.73 0.78 0.83 0.84 0.80 0.80 0.84 0.86 0.82 0.84 0.86 0.90 0.90 0.90 0.89 0.86 0.82 0.79 0.75 0.73 0.67 0.65 0.62 0.54 0.46 0.33 0.26 0.21 0.20 0.20 0.20 0.21
0.28 0.27 0.29 0.25 0.22 0.24 0.22 0.21 0.41 0.40 0.42 0.44 0.46 0.50 0.56 0.60 0.62 0.64 0.66 0.68 0.62 0.68 0.72 0.78 0.82 0.83 0.89 0.88 0.89 0.87 0.86 0.82 0.80 0.79 0.78 0.76 0.69 0.63 0.61 0.55 0.45 0.32 0.25 0.20 0.20 0.19 0.20 0.20 0.21
Wind_Speed
5 5 4 3 2 3 6 5 5 6 6 5 6 4 5 6 4 4 8 6 6 6 5 6 7 7 7 6 6 6 6 7 7 7 7 7 7 7 7 7 7 7 7 7 7 7 7 7 8
4 5 4 4 3 2 5 4 5 5 6 6 6 5 5 6 6 8 7 6 6 5 5 6 6 6 6 5 5 5 6 6 6 7 7 7 6 7 7 8 8 8 8 8 8 8 8 8 8
3 3 3 4 4 5 4 3 5 5 5 4 4 3 4 5 5 8 6 6 5 4 5 6 5 5 5 4 4 5 5 6 6 7 7 7 7 7 7 8 8 9 9 9 9 9 8 8 9
3 3 3 4 5 5 3 4 6 5 3 3 2 3 3 3 6 5 7 6 5 5 5 5 5 5 4 3 4 5 5 6 7 7 8 8 8 8 8 8 9 9 9 9 9 9 9 9 9
3 2 2 4 5 3 2 4 6 4 4 3 2 1 2 4 5 6 6 5 5 5 4 4 4 3 3 3 3 4 5 6 7 7 8 9 9 9 9 9 9 9 9 9 9 9 10 10 10
1 3 3 3 4 3 2 6 4 2 2 2 1 3 2 5 6 6 5 5 4 4 4 4 3 3 3 3 4 4 5 6 7 7 8 9 9 9 10 10 10 10 10 10 10 10 10 11 11
4 4 5 3 2 1 1 5 3 2 2 3 1 2 2 7 7 6 4 4 4 3 3 3 3 3 4 4 4 4 4 5 6 7 8 9 9 9 9 9 10 10 10 10 10 11 11 11 12
4 3 2 3 2 2 1 4 3 3 1 1 3 3 4 8 9 7 5 4 3 3 3 3 4 4 4 4 4 3 3 4 5 6 7 8 8 8 9 9 9 10 10 10 11 11 12 12 13
4 3 2 3 4 2 3 5 3 3 3 4 4 4 3 10 10 9 7 4 3 2 3 4 4 4 4 4 4 3 3 4 4 5 5 5 6 7 7 8 9 10 10 11 11 12 13 13 15
5 4 3 5 6 6 5 7 5 4 4 4 3 3 5 10 11 10 8 6 4 3 4 4 4 4 4 4 4 4 3 3 3 3 3 4 5 5 6 8 9 10 10 11 12 13 14 15 16
4 5 5 5 7 7 6 8 6 7 7 5 6 5 7 9 11 10 9 7 5 4 5 5 5 5 5 4 4 4 3 3 2 2 2 3 4 4 6 7 8 9 10 11 13 14 16 17 18
8 5 5 6 7 6 6 7 8 9 3 5 5 7 8 10 11 11 9 8 6 5 5 6 5 5 5 5 4 4 3 2 1 1 2 2 3 4 5 7 8 10 11 12 13 15 17 18 18
8 5 6 5 6 6 4 6 7 9 6 5 5 7 8 10 11 11 10 9 7 6 6 6 6 6 6 6 5 4 4 2 1 0 1 2 3 4 5 7 9 10 12 13 15 17 17 18 19
7 7 7 7 6 5 5 5 7 7 6 5 6 8 9 10 11 11 11 10 8 7 7 7 7 7 7 6 6 5 4 3 2 2 2 2 3 5 6 8 9 11 13 15 17 17 18 19 20
9 10 10 9 7 7 8 8 9 5 6 7 7 8 9 10 11 12 11 11 9 8 8 8 8 8 7 7 6 5 5 4 3 3 3 4 5 6 7 8 10 13 15 16 17 18 19 20 21
12 12 13 7 10 9 10 7 8 8 8 9 9 10 10 10 11 12 12 11 10 9 8 9 10 9 8 8 7 6 5 5 4 4 5 5 6 7 8 10 12 15 17 17 18 19 20 22 23
12 15 11 14 11 10 12 10 7 10 11 10 11 11 11 12 12 12 13 12 11 10 9 9 10 10 9 9 8 7 6 6 6 6 6 7 7 8 10 11 14 16 17 18 19 20 22 24 25
13 12 12 14 11 13 14 16 10 11 12 13 12 12 13 13 13 13 13 13 12 11 10 10 10 11 10 9 8 8 7 7 7 7 7 8 8 10 11 13 16 16 16 18 20 21 22 24 26
14 16 17 15 13 15 16 17 16 14 15 14 14 14 14 14 13 12 13 12 13 12 12 11 11 12 11 10 10 9 9 8 8 8 8 9 10 11 12 15 14 15 16 18 20 21 23 24 26
16 17 18 15 12 14 17 18 17 13 15 15 16 16 16 15 15 14 14 13 14 13 13 12 11 12 11 11 10 9 9 9 9 9 9 10 11 13 14 13 14 15 16 18 20 22 23 24 26
16 15 15 13 10 13 14 17 15 13 14 14 16 17 17 17 16 16 15 15 14 14 14 13 12 12 11 10 10 10 9 9 9 10 11 11 12 12 12 12 14 15 16 18 20 21 23 26 25
16 14 15 14 12 12 9 15 9 9 14 15 16 17 18 19 19 18 18 17 16 15 15 14 13 12 11 11 10 10 10 10 11 11 11 11 11 11 12 13 13 14 16 18 20 22 24 25 26
17 13 15 13 15 14 13 13 13 10 14 14 14 17 19 21 22 21 21 19 18 16 16 15 14 13 12 12 11 11 10 10 10 11 10 11 11 11 12 13 13 15 17 19 21 23 25 25 27
15 14 13 13 15 17 17 15 16 17 15 13 14 17 19 22 23 24 22 21 19 18 17 16 15 14 13 13 12 12 11 11 11 10 10 11 11 11 13 12 14 15 18 20 21 24 25 27 28
16 15 15 14 14 16 11 14 16 14 13 15 15 15 16 18 22 24 24 22 20 19 18 17 17 16 15 14 14 14 13 12 11 10 11 10 11 12 12 12 14 16 18 20 23 24 27 28 29
16 17 16 16 16 15 8 12 10 9 10 10 12 13 13 14 17 21 23 22 20 20 19 19 19 17 17 16 15 15 14 13 12 12 11 11 11 12 11 12 14 17 19 21 24 26 28 29 30
15 17 15 18 14 18 19 19 17 14 13 12 10 9 9 10 13 17 20 20 20 20 20 20 20 20 19 18 16 15 14 13 12 11 10 11 12 11 12 13 16 17 20 23 25 27 28 30 31
19 15 15 15 15 19 16 14 14 11 10 10 10 9 9 9 12 14 17 18 19 19 20 21 21 21 20 19 18 16 14 12 11 11 10 11 11 11 12 14 16 18 21 23 25 27 29 30 31
16 20 19 17 18 17 17 12 6 8 8 9 10 11 10 11 12 13 15 17 18 18 18 18 19 19 19 20 18 16 15 13 12 11 11 11 12 12 13 15 17 19 22 24 25 27 29 30 32
21 22 22 19 18 17 19 19 11 13 12 12 11 12 12 12 12 13 15 15 15 15 15 16 18 19 19 19 18 16 14 13 12 11 11 11 12 12 14 16 18 20 22 24 25 27 29 30 32
Wind_Direction
57 51 69 62 57 67 86 91 98 109 106 82 102 75 57 51 42 72 130 119 116 113 110 115 112 112 109 98 87 76 69 64 59 55 51 48 46 46 46 43 42 41 39 35 31 27 24 22 20
53 59 68 46 41 80 80 106 122 111 100 106 103 81 76 75 80 113 126 124 118 114 115 124 116 116 112 101 88 82 72 63 56 51 47 45 45 47 46 47 46 46 42 39 35 31 26 21 16
54 55 38 30 41 43 82 120 120 116 122 130 104 69 73 80 97 121 120 126 122 120 126 131 122 125 115 98 92 83 74 66 59 51 46 47 50 52 53 53 50 48 45 42 37 32 26 19 14
47 67 41 29 51 55 67 130 131 128 126 143 101 88 87 93 124 117 128 125 121 123 128 136 123 124 114 97 97 85 73 64 55 50 52 56 58 58 57 55 51 48 44 40 35 30 26 21 15
36 27 23 35 58 61 80 135 150 144 136 156 198 125 111 130 132 128 127 125 124 125 129 140 137 132 119 108 102 90 76 64 56 58 62 63 63 63 61 57 51 46 41 36 31 26 21 16 12
342 339 323 15 47 63 116 148 148 157 154 149 202 153 155 164 157 146 135 129 132 134 136 144 144 146 142 124 112 100 82 68 65 69 68 68 68 66 63 58 52 46 41 35 30 25 20 15 10
335 335 8 7 49 78 136 177 198 200 195 212 203 187 186 188 175 164 145 138 137 147 151 154 151 152 145 133 124 110 89 75 75 73 72 70 67 65 61 55 48 42 38 33 27 22 16 10 5
311 318 1 30 20 51 177 191 238 233 223 239 233 247 220 195 185 179 167 151 146 161 163 163 155 153 152 149 139 124 102 90 86 78 75 73 67 61 55 47 42 36 29 24 19 14 8 4 359
294 280 337 356 335 340 226 226 259 268 249 265 245 269 238 187 188 188 186 177 173 176 175 170 164 158 156 153 150 138 118 109 97 83 72 60 55 50 45 39 33 28 24 20 15 9 3 358 356
281 280 317 317 320 308 251 241 238 249 243 260 241 247 187 187 193 197 199 200 199 191 185 180 176 173 167 162 155 149 141 127 107 80 58 51 47 43 38 32 28 23 20 16 10 5 359 354 350
272 293 298 299 304 299 261 244 240 251 251 254 232 210 199 195 199 203 206 209 209 201 197 194 190 187 184 176 168 160 154 141 112 68 51 44 33 24 18 15 12 10 8 2 1 358 355 353 349
265 277 284 301 301 298 267 249 250 245 301 280 247 216 209 203 202 204 208 210 209 208 205 202 200 195 191 186 187 180 174 171 159 55 30 24 19 17 12 8 5 1 358 355 353 350 349 347 348
256 264 286 295 297 297 279 247 257 249 268 263 226 216 213 206 204 206 209 211 216 214 210 207 204 202 199 198 197 197 195 205 207 282 347 355 2 0 359 359 356 353 350 349 346 345 345 345 345
253 263 277 292 290 278 269 267 264 254 248 239 221 214 211 208 205 206 211 211 217 222 217 213 208 207 205 207 205 206 213 216 236 262 299 326 334 341 344 345 346 346 344 342 341 340 340 341 340
248 258 269 274 279 276 270 261 256 245 237 231 224 218 213 213 210 212 213 213 216 224 223 219 213 211 212 210 211 217 222 228 242 259 283 304 317 324 329 334 336 337 337 336 336 337 337 336 335
252 268 272 263 272 271 264 267 248 240 238 236 229 222 219 215 215 214 215 216 219 224 225 220 216 215 217 218 219 224 225 237 250 266 282 295 306 314 320 325 329 331 331 333 335 335 334 333 332
251 270 273 286 271 267 253 276 262 247 243 236 231 225 223 220 220 220 218 221 225 228 228 223 219 217 218 218 223 229 234 245 257 270 282 291 301 308 313 318 323 326 330 332 332 333 333 333 332
267 262 271 280 277 259 257 260 263 255 244 240 233 229 227 224 224 221 221 225 228 228 228 225 220 217 219 222 228 235 242 251 261 272 281 289 298 304 309 314 320 324 327 330 331 332 333 333 333
271 274 278 280 278 266 260 264 272 250 245 240 235 229 226 225 222 222 222 228 229 228 226 225 220 219 223 229 234 240 246 254 263 272 280 289 296 301 306 313 317 322 326 330 333 333 333 334 335
263 270 274 279 286 266 265 268 272 256 241 244 235 230 230 229 226 228 226 228 230 225 222 222 221 221 226 233 237 242 249 257 265 273 282 291 295 300 306 311 317 322 325 330 333 335 334 335 335
259 268 271 273 288 266 273 267 256 249 245 248 240 237 233 231 227 229 229 228 225 221 219 220 221 222 226 232 237 244 251 259 268 275 285 290 296 302 306 312 318 322 327 330 333 335 336 334 334
263 264 264 269 273 286 267 280 269 251 249 247 246 240 236 235 234 233 229 228 224 221 221 222 222 224 228 230 238 243 253 263 270 274 282 291 297 301 306 312 317 323 326 329 331 333 334 334 333
261 263 262 263 269 280 263 273 272 261 260 257 240 248 248 241 236 235 230 226 223 222 222 222 223 227 231 235 242 248 260 268 271 276 280 289 294 300 306 310 314 320 324 328 330 331 333 333 332
257 250 253 260 266 267 273 277 278 275 271 263 258 264 256 245 238 233 227 222 223 223 225 224 225 228 234 239 246 254 260 266 272 274 280 286 293 300 306 309 315 321 323 325 327 330 332 332 330
240 244 255 256 254 268 282 275 275 280 273 270 270 265 261 248 236 228 221 220 223 224 225 226 229 232 238 244 251 256 261 266 267 270 278 284 293 300 303 308 315 320 325 327 328 329 330 330 330
242 244 246 259 264 269 260 275 283 288 277 272 268 263 260 245 226 217 213 219 224 226 229 231 233 236 240 245 251 254 259 264 266 269 276 284 294 300 303 309 316 320 323 326 328 328 329 329 330
242 246 258 262 266 269 273 273 278 275 270 264 264 256 246 232 218 212 216 223 227 232 234 236 237 241 245 246 250 253 256 259 262 265 272 286 296 297 302 309 315 320 322 325 326 328 329 330 330
249 250 249 253 260 264 270 273 275 272 274 257 249 245 235 226 219 220 223 227 232 235 239 241 243 244 245 244 247 248 249 252 257 263 273 287 295 296 303 310 315 318 322 325 327 328 330 331 331
241 242 248 257 255 262 272 269 265 283 288 259 250 243 238 232 230 228 231 234 236 236 239 241 242 242 244 241 242 240 243 248 254 263 272 284 294 295 302 308 314 318 322 325 327 329 331 332 332
251 247 243 246 250 260 264 265 265 271 276 269 253 246 242 240 239 237 235 234 227 232 238 244 247 246 243 239 233 235 238 244 252 262 271 281 293 296 302 308 314 319 322 325 328 330 331 332 333